Location: Del Amo
(33.8464°N, 118.2104°W)
Time: 14:03:22
(UTC+00:00)

METEOR M2 - Visible Passes

Search period start: 04 October 2024 00:00
Search period end: 14 October 2024 00:00
Orbit: 817 x 826 km, 98.4° (Epoch: 04 October)

Date Brightness Start Highest point End Pass type
(mag) Time Alt. Az. Time Alt. Az. Time Alt. Az.
04 Oct ? 13:05:56 10° NNE 13:11:19 88° ESE 13:16:41 10° SSW visible
05 Oct ? 12:45:44 10° NNE 12:51:01 56° E 12:56:16 10° S visible
06 Oct ? 12:25:46 10° NNE 12:30:39 35° E 12:35:30 10° SSE visible
07 Oct ? 12:06:07 10° NE 12:10:13 22° E 12:14:19 10° SE visible
08 Oct ? 11:47:07 10° ENE 11:49:45 14° E 11:52:21 10° ESE visible
08 Oct ? 13:24:55 10° N 13:30:12 60° WNW 13:35:28 10° SSW visible
09 Oct ? 13:04:32 10° NNE 13:09:57 86° ESE 13:15:19 10° SSW visible
10 Oct ? 12:44:21 10° NNE 12:49:37 55° E 12:54:52 10° S visible
11 Oct ? 01:45:49 10° WSW 01:48:23 14° W 01:50:58 10° WNW visible
11 Oct ? 12:24:23 10° NNE 12:29:15 34° E 12:34:04 10° SSE visible
12 Oct ? 12:04:44 10° NE 12:08:48 22° E 12:12:52 10° SE visible
13 Oct ? 11:45:47 10° ENE 11:48:19 13° E 11:50:51 10° ESE visible
13 Oct ? 13:23:29 10° N 13:28:47 61° WNW 13:34:04 10° SSW visible
